Theta_e
341 340 341 340 339 339 341 347 346 347 346 346 345 345 346 345 346 345 343 345 343 342 344 344 343 345 345 345 345 344 344 345 345 343 343 342 340 342 341 340 341 341 340
340 340 341 341 342 344 348 348 346 346 347 344 346 346 344 344 346 347 347 347 345 344 343 344 343 344 344 342 343 344 346 347 346 344 343 344 342 341 342 343 342 342 342
339 340 340 340 343 345 346 347 348 347 348 346 344 344 346 346 346 346 346 345 344 344 344 346 344 345 344 344 344 345 344 345 346 346 345 343 343 341 340 342 340 339 340
342 341 341 343 344 347 348 348 349 349 349 346 346 344 345 346 346 346 346 344 343 344 343 344 343 345 344 342 344 343 345 345 345 345 343 344 345 346 345 344 342 341 337
349 349 347 347 349 347 347 347 349 349 347 349 347 345 344 345 346 346 345 345 343 344 344 344 344 343 344 343 344 343 344 345 344 345 346 346 345 344 343 343 342 341 338
350 349 348 347 349 349 348 347 346 346 347 348 345 345 344 347 346 344 345 344 345 344 345 344 344 346 345 345 346 346 344 344 345 346 345 343 335 332 331 331 331 332 328
350 351 349 346 344 344 346 346 347 346 346 345 345 345 345 345 345 345 344 345 344 344 344 345 346 346 347 345 347 344 343 343 345 343 332 327 325 323 323 324 325 327 327
338 339 336 334 338 341 340 344 343 344 343 344 344 344 345 341 343 345 345 345 345 344 344 344 346 346 347 347 345 343 343 346 343 334 327 324 323 322 321 322 322 325 326
329 329 328 328 327 326 328 337 342 335 333 336 343 339 341 346 345 345 346 347 346 344 343 344 347 347 347 347 344 344 346 344 341 330 323 321 320 320 323 326 328 331 332
329 328 328 327 327 326 326 326 328 332 334 335 336 331 333 334 342 343 344 343 345 345 343 343 344 346 347 344 344 346 345 343 340 324 321 319 319 322 326 330 331 332 333
329 328 328 328 327 327 326 326 326 331 330 333 331 329 328 332 335 343 342 343 343 345 342 343 341 345 342 343 344 345 345 342 330 322 319 318 323 326 329 331 331 333 335
328 329 329 329 330 328 327 326 325 330 337 334 332 330 326 328 339 339 341 342 342 340 342 341 342 343 342 343 345 345 343 333 322 320 319 322 325 328 331 331 332 334 335
328 328 329 330 330 330 328 326 326 336 341 340 333 331 328 328 331 333 341 343 341 337 343 343 344 342 343 345 344 343 336 324 321 319 322 324 328 331 331 332 333 334 335
330 330 331 331 330 329 327 326 325 326 336 344 335 331 330 331 332 332 334 341 343 344 345 345 344 342 343 344 343 338 325 322 320 322 323 328 330 331 332 332 332 334 336
327 328 328 328 327 326 325 325 327 324 327 334 342 338 332 332 332 331 331 333 341 343 345 343 343 343 342 341 337 327 324 320 321 322 328 329 330 331 330 331 331 333 336
325 325 323 322 324 325 326 326 329 326 325 327 332 341 340 333 332 332 331 332 332 341 342 340 340 340 341 339 331 326 323 321 321 325 327 328 327 323 324 326 330 332 332
326 326 324 323 323 325 328 328 331 328 326 326 328 333 339 342 341 340 334 333 340 340 339 337 338 339 339 333 326 325 321 320 322 325 324 320 321 321 319 319 318 319 323
325 324 324 325 325 326 328 330 329 329 327 326 326 329 334 337 341 338 334 332 332 336 340 340 339 338 335 328 326 325 320 319 321 323 322 322 323 323 323 324 324 323 322
325 324 325 326 326 327 327 327 329 328 327 328 328 327 332 336 339 341 338 331 332 335 339 338 337 335 331 327 326 325 320 319 320 322 323 322 323 324 325 325 325 325 324
324 325 326 327 327 327 327 327 327 327 326 327 329 328 331 335 337 338 339 339 334 338 339 337 337 336 331 325 327 325 322 322 323 324 324 324 324 324 325 326 326 326 327
328 329 329 328 327 328 328 327 328 328 327 328 329 328 329 333 335 338 337 338 339 331 338 337 335 335 333 328 325 327 323 323 324 324 323 323 324 324 324 324 326 326 327
329 329 328 328 329 329 329 328 328 328 328 329 329 328 330 333 335 338 337 337 336 335 334 335 334 335 336 335 329 327 325 325 325 325 324 325 327 326 327 327 326 325 325
327 328 328 327 327 329 329 329 329 328 328 330 329 330 331 333 334 336 336 336 335 336 337 336 332 335 333 336 330 328 326 326 326 325 325 325 325 326 326 326 326 326 327
325 326 327 327 328 329 329 329 329 329 329 331 330 330 333 333 335 335 335 335 334 335 337 336 334 331 332 335 324 326 327 326 325 325 325 325 325 325 326 327 327 326 323
324 324 326 327 328 329 329 329 330 329 329 329 329 329 332 334 335 334 334 334 334 333 337 335 336 336 331 325 327 329 327 325 325 325 325 326 326 327 328 328 325 325 325
324 325 326 326 326 326 329 329 329 329 330 329 327 328 331 332 334 334 335 335 334 332 335 336 332 323 324 329 329 328 324 324 325 325 326 326 327 328 327 325 325 324 321
Wind_Speed
19 19 19 17 18 22 24 24 21 21 20 22 24 24 25 25 21 20 22 19 19 16 17 15 10 11 10 9 11 9 9 9 12 11 9 8 6 6 7 5 8 16 16
17 17 16 18 20 20 23 22 20 20 20 21 23 20 20 24 24 22 21 22 20 18 17 17 13 11 10 11 11 11 9 9 11 12 13 12 12 11 10 11 11 12 13
12 17 23 26 21 19 17 16 17 21 21 20 24 26 24 26 26 24 22 21 20 17 16 16 14 12 11 11 11 11 10 11 12 13 13 13 14 13 13 13 12 12 13
14 18 22 22 21 18 14 19 19 20 21 20 21 25 24 24 25 25 23 21 19 19 17 17 14 15 13 11 12 11 12 12 13 15 16 15 15 15 15 16 17 16 18
13 13 14 16 16 14 15 19 19 19 20 21 20 22 24 25 24 25 26 21 19 17 18 18 15 16 16 15 13 12 11 13 13 13 15 17 17 18 18 20 23 22 23
14 11 13 13 15 14 15 17 18 17 21 21 22 22 24 26 22 24 26 27 22 20 18 18 17 18 16 13 13 11 11 11 13 15 15 18 19 20 21 22 24 25 29
14 10 11 12 13 16 18 14 12 10 14 18 20 23 22 23 25 26 25 23 26 24 22 20 21 19 16 14 13 13 13 14 14 15 16 17 19 19 22 23 23 25 27
19 18 19 20 17 10 20 22 15 12 10 12 13 18 20 20 22 27 26 23 27 27 25 22 23 21 19 16 14 14 14 13 14 15 17 18 20 21 21 22 22 23 23
16 18 20 22 20 17 16 14 15 14 14 13 7 17 13 20 25 25 25 27 27 28 27 25 25 24 22 18 16 15 14 13 15 16 18 18 19 21 22 20 18 19 22
14 16 19 19 20 19 17 16 16 15 12 5 13 27 18 28 28 27 24 23 25 24 25 24 23 24 21 19 17 15 15 13 15 16 18 20 21 19 20 17 16 18 20
13 13 14 15 16 16 14 13 12 13 12 12 20 25 33 34 31 26 26 29 26 21 26 25 27 23 20 19 17 16 14 14 15 16 18 19 18 17 15 14 15 17 17
15 12 11 11 11 14 16 13 13 11 12 10 6 1 3 20 23 21 26 30 29 27 31 25 27 25 23 20 18 16 14 13 14 15 16 16 15 11 10 10 11 13 13
17 18 15 13 12 13 18 18 17 16 17 15 17 18 15 18 20 27 23 29 29 28 34 30 27 24 23 21 18 15 13 12 11 12 13 13 8 4 4 5 7 10 10
19 20 20 17 16 16 18 22 20 21 22 23 26 26 24 31 26 30 25 22 29 31 30 28 27 26 23 20 17 14 11 9 9 9 9 5 2 1 1 3 4 5 4
28 26 26 27 28 27 24 25 25 22 26 25 25 32 30 34 28 15 13 21 26 33 34 32 30 27 24 21 16 13 10 8 7 6 4 2 1 1 2 2 4 2 2
34 33 33 32 30 29 24 24 26 26 25 26 26 24 30 35 31 28 26 23 25 29 32 30 27 23 22 18 16 12 9 8 6 5 4 3 3 4 5 6 4 2 2
34 36 37 33 30 27 23 22 25 28 29 29 23 24 24 25 26 27 27 19 14 21 28 29 26 23 20 19 16 11 9 9 8 10 10 13 13 13 14 14 12 10 10
35 35 33 32 29 25 23 23 24 28 33 33 24 23 25 23 23 21 19 16 20 19 27 27 25 21 19 19 17 12 12 13 13 15 16 15 13 13 12 13 13 13 13
29 31 30 28 27 25 24 26 29 29 30 34 29 25 23 21 19 19 20 22 19 21 28 26 21 19 19 20 18 15 14 17 17 18 16 15 13 11 8 7 7 7 6
26 26 25 25 25 25 26 27 27 30 31 32 27 25 23 21 20 23 25 30 30 29 27 24 22 22 23 23 23 18 19 21 20 18 16 14 12 10 7 5 3 2 2
23 25 24 25 25 25 24 26 26 25 29 30 29 25 23 22 20 21 17 21 28 33 32 26 22 23 25 24 25 24 22 24 21 19 17 15 12 10 9 6 3 2 5
22 24 24 25 25 26 25 24 27 26 27 26 27 20 21 23 21 21 18 17 18 24 31 33 28 24 27 27 27 29 25 26 23 21 19 16 13 10 8 7 6 7 8
23 24 26 26 25 24 25 24 25 26 25 22 20 19 19 24 21 21 19 16 15 18 23 31 36 34 23 25 27 30 29 23 24 22 19 17 15 12 11 11 10 11 13
25 26 26 25 25 24 24 25 24 23 24 23 22 21 18 22 24 24 17 16 14 15 19 21 28 36 32 30 28 30 27 22 22 20 19 17 15 13 12 14 15 15 14
25 24 23 23 23 22 22 22 24 24 24 26 25 25 19 20 22 20 16 16 15 14 16 18 23 28 30 30 28 25 24 24 22 19 19 16 15 15 15 16 15 13 10
25 25 22 21 23 22 22 22 22 22 22 23 24 24 19 17 17 17 16 15 15 12 16 21 24 26 27 26 26 24 23 24 20 18 18 18 16 16 15 14 11 10 7
Wind_Direction
219 235 256 259 261 266 255 251 255 259 257 245 244 242 251 242 242 246 243 251 256 257 263 269 255 255 265 241 247 248 252 261 276 286 298 302 313 302 281 303 233 242 243
230 229 232 247 260 268 243 253 253 257 255 251 239 245 240 238 243 244 248 253 257 257 263 264 253 250 247 235 237 238 248 262 271 280 290 290 287 282 283 267 259 264 265
270 256 260 264 270 268 284 268 260 257 255 248 241 242 242 240 239 241 248 250 251 253 255 256 255 244 239 232 240 241 252 261 267 275 286 291 294 290 287 281 273 271 272
276 263 268 273 279 285 281 281 270 266 256 251 245 242 243 243 239 240 243 243 245 248 248 242 245 239 234 242 235 239 253 257 265 271 280 286 290 290 293 294 287 284 276
308 297 292 287 298 299 293 278 276 275 269 260 252 247 245 246 247 245 244 239 239 239 242 232 232 234 235 234 240 245 248 261 263 269 278 285 287 288 287 287 288 288 283
338 323 313 303 317 295 281 275 283 287 282 273 266 252 244 242 245 245 245 232 230 239 235 227 227 232 231 236 240 253 263 263 273 277 283 287 290 289 288 288 290 292 293
0 349 338 331 316 327 324 293 278 276 283 285 284 279 268 266 261 249 241 235 226 235 239 231 227 227 226 232 246 255 262 272 273 283 289 292 292 293 293 293 290 288 288
19 19 18 18 14 330 294 299 305 302 339 324 301 280 275 272 275 265 248 237 228 233 237 230 224 225 229 238 243 250 263 266 283 292 298 296 295 295 294 292 293 293 294
13 12 11 7 3 352 346 346 304 301 290 310 0 358 339 271 259 254 249 247 238 234 235 232 225 229 230 237 242 249 255 270 288 295 297 295 296 297 296 294 297 297 303
352 353 351 355 352 349 345 334 335 327 275 274 297 325 331 317 277 250 253 251 246 243 238 235 227 227 229 233 239 245 251 269 283 290 296 300 302 299 296 296 299 303 307
333 340 342 343 341 340 338 322 312 313 320 284 287 325 302 287 283 247 240 243 237 244 227 231 232 232 234 234 238 245 254 270 281 286 294 298 297 294 290 289 297 300 304
311 316 320 329 337 335 342 329 291 277 267 259 274 16 287 264 231 237 236 238 235 246 229 225 228 228 229 232 234 238 251 263 276 290 297 299 300 295 283 283 284 294 300
297 301 301 301 308 315 319 324 309 279 249 247 243 225 215 207 231 224 241 222 217 213 220 218 219 224 225 223 225 235 244 258 278 292 294 296 297 296 297 308 296 299 305
291 289 291 292 291 293 297 301 301 282 275 257 244 243 238 236 246 232 241 246 229 227 226 222 219 223 225 219 221 225 234 255 276 287 294 284 283 272 318 328 310 293 318
294 290 286 287 289 289 285 278 276 276 271 272 266 252 253 247 260 266 246 254 232 224 217 215 217 214 211 216 210 207 227 247 260 279 267 218 219 257 289 310 336 297 28
287 290 295 293 291 289 282 265 256 268 264 273 268 268 261 261 269 280 254 291 254 229 222 219 218 219 220 211 205 205 220 232 238 224 193 150 117 100 81 71 77 66 3
282 290 297 292 287 284 274 265 260 264 263 263 263 264 270 267 268 271 258 261 252 224 214 220 220 215 204 197 199 204 215 214 198 176 150 132 121 104 93 87 79 75 72
286 289 289 287 283 276 269 260 258 260 269 268 266 262 265 271 269 263 251 239 251 246 221 215 217 206 193 200 197 198 203 197 184 166 153 148 140 124 112 101 95 88 85
284 287 290 286 276 268 270 262 258 260 263 267 276 266 258 265 263 263 254 238 258 236 223 213 209 202 200 197 198 199 198 190 180 174 168 165 161 152 145 133 116 102 93
286 285 284 283 278 270 272 269 263 261 260 262 265 267 262 264 259 257 257 239 242 226 220 212 210 207 200 200 197 196 195 191 189 187 185 183 182 181 186 185 173 188 230
293 291 288 282 275 274 275 264 261 264 261 267 263 269 251 259 262 255 255 246 239 227 220 213 211 207 202 200 201 203 197 202 200 199 197 197 199 198 212 221 218 256 280
300 295 295 290 284 274 272 267 259 265 266 264 270 258 250 253 254 238 239 241 241 235 228 225 222 218 211 212 210 202 199 206 206 206 205 205 206 205 209 224 256 281 285
291 293 292 292 287 280 268 265 264 262 261 264 254 261 256 251 253 239 241 245 245 239 230 227 222 209 209 212 207 203 204 203 206 209 210 214 215 218 229 247 264 280 285
307 291 282 286 288 281 272 264 263 262 257 252 257 258 260 252 255 232 233 232 234 230 226 221 216 212 214 203 202 201 205 206 203 210 215 216 215 225 244 257 271 279 280
310 304 289 279 279 280 273 266 261 260 256 256 260 254 259 251 242 220 219 219 223 225 215 206 196 187 188 187 189 195 198 198 201 208 203 206 223 238 251 265 271 272 261
311 308 294 275 272 278 275 268 262 259 260 255 252 247 247 249 232 230 220 220 219 215 195 184 180 182 185 190 191 191 190 193 202 207 211 218 231 248 258 262 259 256 255